Regional Weather Roundup
Issued by NWS

Home | Current Version | Previous Version | Graphics & Text | Print | Product List | Glossary On
Versions: 1 2 3 4 5 6 7 8 9 10 11 12 13 14 15 16 17 18 19 20 21 22 23 24 25 26 27 28 29 30 31 32 33 34 35 36 37 38 39 40 41 42 43 44 45 46 47 48 49 50
000
ASUS43 KLMK 011510
RWRKY
KENTUCKY REGIONAL WEATHER ROUNDUP
NATIONAL WEATHER SERVICE LOUISVILLE KY
1100 AM EDT SAT AUG 01 2015

NOTE "FAIR" INDICATES FEW OR NO CLOUDS BELOW 12,000 FEET
WITH NO SIGNIFICANT WEATHER AND/OR OBSTRUCTIONS TO VISIBILITY.

KYZ001>023-026-027-061>063-070>075-011600-
WESTERN AND SOUTH CENTRAL KENTUCKY

CITY           SKY/WX    TMP DP  RH WIND       PRES   REMARKS
PADUCAH        SUNNY     84  69  60 NE6       30.03F
HENDERSON      SUNNY     81  63  54 N7        30.03F
OWENSBORO      SUNNY     83  65  54 N8        30.04F
HOPKINSVILLE   SUNNY     82  72  71 VRB5      30.03F
BOWLING GREEN  SUNNY     84  69  60 CALM      30.04F
GLASGOW        SUNNY    N/A N/A N/A N3        30.04S
$$

KYZ024-025-028>034-038-045-046-053-011600-
NORTH CENTRAL KENTUCKY

CITY           SKY/WX    TMP DP  RH WIND       PRES   REMARKS
LOUISVILLE/SDF SUNNY     84  58  40 NW8       30.01F
LOUISVILLE/LOU SUNNY     82  61  48 VRB5      30.02F
FORT KNOX      SUNNY     82  63  52 W5        30.02S
$$

KYZ035>037-039>044-047>052-055>060-089>105-011600-
NORTHEAST KENTUCKY

CITY           SKY/WX    TMP DP  RH WIND       PRES   REMARKS
LEXINGTON      MOSUNNY   80  64  58 W5        30.03F
COVINGTON      SUNNY     79  58  48 NW9       30.03R
FRANKFORT      SUNNY     79  62  56 VRB5      30.02S
$$

KYZ054-064>069-076>088-106>120-011600-
SOUTHEAST KENTUCKY

CITY           SKY/WX    TMP DP  RH WIND       PRES   REMARKS
JACKSON        SUNNY     77  64  64 CALM      30.05S
LONDON         SUNNY     80  62  54 CALM      30.05F
SOMERSET       SUNNY     77  63  61 CALM      30.05F
MIDDLESBORO    SUNNY     72  65  77 CALM      30.07S
MONTICELLO     SUNNY     81  67  62 CALM      30.07F
$$




USA.gov is the U.S. government's official web portal to all federal, state and local government web resources and services.